Location: Red Bud (historical)
(37.7759°N, 88.4053°W)
Time: 05:07:00
(UTC+00:00)

X-37B - Visible Passes

Search period start: 18 June 2021 00:00
Search period end: 28 June 2021 00:00
Orbit: 386 x 389 km, 45.0° (Epoch: 10 June)

Date Brightness Start Highest point End Pass type
(mag) Time Alt. Az. Time Alt. Az. Time Alt. Az.
18 Jun 3.4 06:57:24 18° NNE 06:57:24 18° NNE 06:58:41 10° NE visible
18 Jun 3.1 08:30:37 10° NW 08:33:13 22° N 08:35:48 10° ENE visible
19 Jun 3.1 07:33:43 19° NNW 07:34:37 21° N 07:37:09 10° NE visible
19 Jun 2.2 09:08:50 10° NW 09:11:49 36° NNE 09:14:47 10° E visible
20 Jun 3.7 06:37:56 14° NE 06:37:56 14° NE 06:38:37 10° NE visible
20 Jun 2.8 08:10:32 10° NW 08:13:18 27° NNE 08:16:04 10° ENE visible
20 Jun 0.5 09:47:00 10° WNW 09:50:10 77° SSW 09:53:20 10° ESE visible
21 Jun 3.1 07:14:49 22° N 07:14:49 22° N 07:17:20 10° ENE visible
21 Jun 1.2 08:48:39 10° WNW 08:51:48 58° NNE 08:54:55 10° ESE visible
22 Jun 1.7 02:59:16 10° SW 03:01:06 28° SSW 03:01:06 28° SSW visible
22 Jun 2.1 07:52:39 32° NNW 07:53:21 36° NNE 07:56:19 10° E visible
22 Jun 1.1 09:27:01 10° WNW 09:29:59 37° SW 09:32:57 10° SE visible
23 Jun 1.9 02:01:33 10° SSW 02:04:03 22° SE 02:06:34 10° E visible
23 Jun 1.3 03:37:23 10° WSW 03:40:31 53° NNW 03:41:14 41° NNE visible
23 Jun 0.7 08:32:12 58° SE 08:32:12 58° SE 08:34:51 10° SE visible
24 Jun 0.5 02:38:57 10° WSW 02:42:07 85° SE 02:45:18 10° ENE visible
24 Jun 2.8 04:16:16 10° WNW 04:19:01 26° NNW 04:19:34 24° N visible
25 Jun 2.3 03:17:33 10° W 03:20:30 34° NNW 03:23:27 10° NE visible
25 Jun 3.5 04:55:10 10° NW 04:56:42 18° NNW 04:56:42 18° NNW visible
26 Jun 1.4 02:18:55 10° WSW 02:22:02 53° NNW 02:25:10 10° NE visible
26 Jun 3.1 03:56:33 10° WNW 03:59:07 22° N 04:01:00 14° NE visible
27 Jun 2.9 02:57:49 10° WNW 03:00:33 26° NNW 03:03:17 10° NE visible
27 Jun 3.1 04:35:13 10° NW 04:37:22 22° N 04:37:22 22° N visible
